Regional Weather Roundup
Issued by NWS Midland/Odessa, TX

Skip options and go directly to product.
Home | Oldest Version | Previous Version | Current Version | All | Text Only | Save Text | Print | Product List | Glossary Off

Skip product version selection by date and time.   

603
ASUS44 KMAF 100610
RWRMAF
MIDLAND AREA WEATHER ROUNDUP
NATIONAL WEATHER SERVICE MIDLAND TX
1200 AM CST WED FEB 10 2016

...IN SOUTHWEST TEXAS AND SOUTHEAST NEW MEXICO...

CITY           SKY/WX    TMP DP  RH WIND       PRES   REMARKS
ALPINE         CLEAR     36  16  44 SW8       30.44S WCI  30
ANDREWS        FAIR      45  22  40 SW7       30.36S
ARTESIA        CLOUDY    34  21  60 W5        30.37S WCI  30
BIG SPRING     CLEAR     40  22  49 SE3       30.37R
CARLSBAD       CLEAR     37  22  54 N3        30.35S
DRYDEN           N/A     45  18  34 W8        30.34S
FORT STOCKTON  CLEAR     45  22  40 S9        30.36R
GUAD PASS      CLEAR     45  18  34 NE16      30.40R WCI  38
HOBBS          CLEAR     32  19  59 W8        30.37S WCI  25
MARFA          CLOUDY    31  16  54 N9        30.40S WCI  23
MIDLAND AIRPK  CLEAR     43  26  51 W5        30.36F WCI  40
MIDLAND INTL   CLEAR     39  24  55 SW3       30.35S
ODESSA         CLEAR     42  24  49 W3        30.36S
PECOS          CLEAR     38  24  56 CALM      30.36S
PRESIDIO       FAIR      51  16  24 N10       30.33S
SEMINOLE       CLEAR     38  22  51 W3        30.37R
SNYDER           N/A     51  22  33 NW5       30.33R
WINK           CLEAR     35  21  56 N7        30.35R WCI  29
$$
...OTHER STATIONS IN TEXAS...

CITY           SKY/WX    TMP DP  RH WIND       PRES   REMARKS
ABILENE        CLEAR     46  30  53 SE3       30.32R
AMARILLO       CLEAR     40  23  50 W7        30.33S WCI  35
AUSTIN         CLEAR     40  32  73 N7        30.33R WCI  35
BROWNSVILLE    CLEAR     47  44  90 S5        30.36F
CORPUS CHRISTI CLEAR     50  35  56 SW12      30.33R
DALLAS FTW     CLEAR     41  24  51 N7        30.33R WCI  36
DEL RIO        CLEAR     50  25  37 N5        30.33S
EL PASO        CLEAR     45  19  35 N3        30.34R
HOUSTON INT    CLEAR     45  36  70 CALM      30.31S
LUBBOCK        CLEAR     39  19  44 W5        30.33R WCI  36
SAN ANGELO     CLEAR     39  24  55 SW7       30.33S WCI  34
SAN ANTONIO    CLEAR     48  33  56 NW6       30.31S
WACO           CLEAR     43  27  53 N8        30.35R WCI  38
WICHITA FALLS  NOT AVBL
$$
...OTHER LOCATIONS IN NEW MEXICO...

CITY           SKY/WX    TMP DP  RH WIND       PRES   REMARKS
ALAMAGORDO     CLOUDY    39  18  41 NE3       30.36S
ALBUQUERQUE    CLOUDY    44  20  38 N6        30.39R
CANNON AFB     CLOUDY    37  16  41 NW7       30.35F WCI  32
CLOVIS         CLOUDY    34  18  51 NW8       30.36F WCI  27
HOLLOMAN AFB   CLOUDY    37  15  40 S2        30.35R
ROSWELL        CLOUDY    37  21  52 CALM      30.36S
RUIDOSO          N/A     39  14  35 CALM      30.44S
SANTA FE       CLOUDY    27  18  69 N5        30.41R WCI  22
TRUTH OR CONSE CLEAR     41  17  38 W7        30.37R WCI  36
TUCUMCARI      CLOUDY    31  16  54 W5        30.34S WCI  26
$$

USA.gov is the U.S. government's official web portal to all federal, state and local government web resources and services.